Regional Weather Roundup
Issued by NWS

Home | Current Version | Previous Version | Text Only | Print | Product List | Glossary On
Versions: 1 2 3 4 5 6 7 8 9 10 11 12 13 14 15 16 17 18 19 20 21 22 23 24 25 26 27 28 29 30 31 32 33 34 35 36 37 38 39 40 41 42 43 44 45 46 47 48 49 50
000
ASUS44 KOUN 210510
RWROK

WEATHER ROUNDUP FOR OKLAHOMA
NATIONAL WEATHER SERVICE NORMAN OK
1100 PM CST FRI JAN 20 2017

NOTE: "FAIR" INDICATES FEW OR NO CLOUDS BELOW 12,000 FEET WITH NO
      SIGNIFICANT WEATHER AND/OR OBSTRUCTIONS TO VISIBILITY.

OKZ001>007-009>012-014-015-017-210600-
NORTHWEST OKLAHOMA AND THE PANHANDLE

CITY           SKY/WX    TMP DP  RH WIND       PRES   REMARKS
GAGE           CLEAR     35  31  85 SW7       29.55R WCI  29
GUYMON         CLEAR     28  26  92 SW7       29.54R WCI  21
ENID/WOODRING  CLEAR     45  36  70 W10       29.51R
$$

OKZ016-021>023-033>039-044-045-210600-
SOUTHWEST OKLAHOMA

CITY           SKY/WX    TMP DP  RH WIND       PRES   REMARKS
LAWTON/REGL    CLEAR     44  36  73 W5        29.59S
LAWTON/FT SILL CLEAR     49  37  62 W5        29.57S
FREDERICK      CLEAR     47  37  68 W6        29.56F
CLINTON        CLEAR     45  32  60 SW10      29.58R
HOBART         CLEAR     50  34  54 SW13      29.59R
ALTUS AFB      CLEAR     49  33  54 SW10      29.59R
$$

OKZ018>020-024>031-210600-
CENTRAL OKLAHOMA

CITY           SKY/WX    TMP DP  RH WIND       PRES   REMARKS
OKLAHOMA CITY  PTCLDY    51  32  48 SW9       29.55S
OKC/WILEY POST CLEAR     53  34  48 SW13      29.54S
OKC/TINKER AFB PTCLDY    51  34  50 S13       29.54S
STILLWATER     CLEAR     56  31  38 SW12      29.51R
GUTHRIE        CLEAR     57  32  38 SW15      29.52S
$$

OKZ008-013-054>072-210600-
NORTHEAST OKLAHOMA

CITY           SKY/WX    TMP DP  RH WIND       PRES   REMARKS
TULSA          CLEAR     59  36  42 S14       29.52S
TULSA/JONES    CLEAR     57  35  43 S8        29.53S
PONCA CITY     CLEAR     50  35  56 W12       29.50R
BARTLESVILLE   CLEAR     57  35  43 S9        29.49S
MUSKOGEE       CLEAR     57  40  52 S8        29.57S
$$

OKZ032-040>043-046>053-073>077-210600-
SOUTH CENTRAL/SOUTHEAST OKLAHOMA

CITY           SKY/WX    TMP DP  RH WIND       PRES   REMARKS
ARDMORE/DWNTWN CLEAR     50  34  53 CALM      29.61S
MCALESTER      PTCLDY    57  40  52 S6        29.60S
$$





USA.gov is the U.S. government's official web portal to all federal, state and local government web resources and services.